Previsão horária em Plewnia

Hoje, 3 Março, Quarta-feira

Tempo Temperatura Precipitação Vento Pressão Humidade
00:00 +4°C° 0 mm 1 m/s 763 mmHg 85%
01:00 +3°C° 0 mm 0 m/s 763 mmHg 85%
02:00 +2°C° 0 mm 0 m/s 763 mmHg 85%
03:00 +3°C° 0 mm 1 m/s 762 mmHg 85%
04:00 +3°C° 0 mm 1 m/s 762 mmHg 85%
05:00 +3°C° 0 mm 1 m/s 762 mmHg 85%
06:00 +3°C° 0 mm 1 m/s 762 mmHg 84%
07:00 +3°C° 0 mm 1 m/s 761 mmHg 84%
08:00 +5°C° 0 mm 1 m/s 761 mmHg 77%
09:00 +6°C° 0 mm 1 m/s 761 mmHg 70%
10:00 +7°C° 0 mm 2 m/s 760 mmHg 63%
11:00 +8°C° 0 mm 2 m/s 760 mmHg 59%
12:00 +10°C° 0 mm 2 m/s 759 mmHg 55%
13:00 +12°C° 0 mm 2 m/s 759 mmHg 51%
14:00 +12°C° 0 mm 2 m/s 758 mmHg 53%
15:00 +12°C° 0 mm 2 m/s 757 mmHg 54%
16:00 +13°C° 0 mm 2 m/s 757 mmHg 56%
17:00 +10°C° 0 mm 2 m/s 756 mmHg 60%
18:00 +9°C° 0 mm 3 m/s 756 mmHg 64%
19:00 +7°C° 0 mm 3 m/s 756 mmHg 69%
20:00 +7°C° 0 mm 3 m/s 755 mmHg 71%
21:00 +5°C° 0 mm 3 m/s 755 mmHg 73%
22:00 +5°C° 0 mm 4 m/s 754 mmHg 75%
23:00 +5°C° 0 mm 4 m/s 753 mmHg 77%

Amanhã, 4 Março, Quinta-feira

Tempo Temperatura Precipitação Vento Pressão Humidade
00:00 +5°C° 0 mm 4 m/s 753 mmHg 79%
01:00 +5°C° 0 mm 4 m/s 753 mmHg 82%
02:00 +4°C° 0 mm 4 m/s 752 mmHg 84%
03:00 +3°C° 0 mm 5 m/s 751 mmHg 86%
04:00 +3°C° 0 mm 5 m/s 751 mmHg 88%
05:00 +3°C° 0 mm 5 m/s 751 mmHg 90%
06:00 +3°C° 0 mm 5 m/s 750 mmHg 92%
07:00 +3°C° 0 mm 5 m/s 750 mmHg 94%
08:00 +4°C° 0 mm 6 m/s 750 mmHg 87%
09:00 +5°C° 0 mm 6 m/s 750 mmHg 80%
10:00 +5°C° 0 mm 7 m/s 749 mmHg 73%
11:00 +6°C° 0 mm 7 m/s 749 mmHg 68%
12:00 +8°C° 0 mm 7 m/s 749 mmHg 64%
13:00 +8°C° 0 mm 7 m/s 749 mmHg 59%
14:00 +7°C° 0 mm 6 m/s 748 mmHg 62%
15:00 +5°C° 0 mm 6 m/s 748 mmHg 66%
16:00 +4°C° 0 mm 6 m/s 747 mmHg 70%
17:00 +3°C° 0 mm 5 m/s 748 mmHg 71%
18:00 +3°C° 0 mm 4 m/s 748 mmHg 72%
19:00 +1°C° 0 mm 4 m/s 748 mmHg 73%
20:00 +1°C° 0.1 mm 4 m/s 748 mmHg 79%
21:00 0°C° 0.1 mm 4 m/s 749 mmHg 84%
22:00 0°C° 0.1 mm 4 m/s 749 mmHg 90%
23:00 -1°C° 0 mm 5 m/s 749 mmHg 87%

Depois de amanhã, 5 Março, Sexta-feira

Tempo Temperatura Precipitação Vento Pressão Humidade
00:00 -1°C° 0 mm 5 m/s 750 mmHg 84%
01:00 -2°C° 0 mm 5 m/s 750 mmHg 81%
02:00 -2°C° 0 mm 5 m/s 751 mmHg 80%
03:00 -3°C° 0 mm 4 m/s 751 mmHg 80%
04:00 -3°C° 0 mm 4 m/s 751 mmHg 80%
05:00 -3°C° 0 mm 4 m/s 752 mmHg 80%
06:00 -4°C° 0 mm 4 m/s 752 mmHg 81%
07:00 -4°C° 0 mm 3 m/s 752 mmHg 81%
08:00 -3°C° 0 mm 4 m/s 753 mmHg 72%
09:00 -1°C° 0 mm 4 m/s 753 mmHg 63%
10:00 0°C° 0 mm 4 m/s 753 mmHg 53%
11:00 0°C° 0 mm 4 m/s 754 mmHg 50%
12:00 +1°C° 0 mm 4 m/s 754 mmHg 47%
13:00 +1°C° 0 mm 4 m/s 754 mmHg 44%
14:00 +1°C° 0.1 mm 4 m/s 754 mmHg 44%
15:00 +1°C° 0.1 mm 4 m/s 754 mmHg 44%
16:00 +1°C° 0.1 mm 4 m/s 754 mmHg 44%
17:00 0°C° 0 mm 4 m/s 755 mmHg 49%
18:00 0°C° 0 mm 3 m/s 756 mmHg 54%
19:00 0°C° 0 mm 3 m/s 756 mmHg 59%
20:00 -1°C° 0 mm 3 m/s 757 mmHg 63%
21:00 -2°C° 0 mm 4 m/s 757 mmHg 66%
22:00 -3°C° 0 mm 4 m/s 758 mmHg 69%
23:00 -3°C° 0 mm 4 m/s 758 mmHg 70%

6 Março, Sábado

Tempo Temperatura Precipitação Vento Pressão Humidade
00:00 -4°C° 0 mm 4 m/s 759 mmHg 72%
01:00 -4°C° 0 mm 4 m/s 759 mmHg 73%
02:00 -4°C° 0 mm 3 m/s 759 mmHg 71%
03:00 -4°C° 0 mm 3 m/s 760 mmHg 68%
04:00 -4°C° 0 mm 3 m/s 760 mmHg 66%
05:00 -4°C° 0 mm 3 m/s 760 mmHg 65%
06:00 -4°C° 0 mm 3 m/s 761 mmHg 64%
07:00 -4°C° 0 mm 3 m/s 761 mmHg 63%
08:00 -1°C° 0 mm 3 m/s 761 mmHg 58%
09:00 -1°C° 0 mm 4 m/s 761 mmHg 52%
10:00 0°C° 0 mm 5 m/s 761 mmHg 47%
11:00 0°C° 0 mm 5 m/s 761 mmHg 44%
12:00 +1°C° 0 mm 5 m/s 761 mmHg 41%
13:00 +2°C° 0 mm 5 m/s 761 mmHg 38%
14:00 +1°C° 0 mm 5 m/s 760 mmHg 38%
15:00 +1°C° 0 mm 5 m/s 760 mmHg 38%
16:00 +1°C° 0 mm 5 m/s 760 mmHg 38%
17:00 0°C° 0 mm 5 m/s 759 mmHg 43%
18:00 -1°C° 0 mm 5 m/s 759 mmHg 47%
19:00 -2°C° 0 mm 4 m/s 759 mmHg 51%
20:00 -2°C° 0 mm 5 m/s 759 mmHg 51%
21:00 -2°C° 0 mm 5 m/s 759 mmHg 51%
22:00 -3°C° 0 mm 6 m/s 758 mmHg 51%
23:00 -3°C° 0 mm 6 m/s 758 mmHg 51%

7 Março, Domingo

Tempo Temperatura Precipitação Vento Pressão Humidade
00:00 -3°C° 0 mm 6 m/s 757 mmHg 52%
01:00 -3°C° 0 mm 7 m/s 757 mmHg 52%
02:00 -3°C° 0 mm 7 m/s 756 mmHg 54%
03:00 -3°C° 0 mm 7 m/s 756 mmHg 57%
04:00 -3°C° 0 mm 7 m/s 755 mmHg 59%
05:00 -3°C° 0 mm 7 m/s 755 mmHg 64%
06:00 -3°C° 0 mm 7 m/s 755 mmHg 69%
07:00 -3°C° 0 mm 7 m/s 754 mmHg 74%
08:00 -3°C° 0 mm 7 m/s 754 mmHg 74%
09:00 -2°C° 0 mm 7 m/s 754 mmHg 74%
10:00 -2°C° 0 mm 8 m/s 754 mmHg 73%
11:00 -2°C° 0 mm 8 m/s 753 mmHg 72%
12:00 -2°C° 0 mm 8 m/s 753 mmHg 71%
13:00 -2°C° 0 mm 8 m/s 752 mmHg 70%
14:00 -1°C° 0 mm 7 m/s 752 mmHg 69%
15:00 -1°C° 0 mm 7 m/s 752 mmHg 67%
16:00 -1°C° 0 mm 7 m/s 751 mmHg 66%
17:00 -1°C° 0 mm 7 m/s 751 mmHg 70%
18:00 -2°C° 0 mm 6 m/s 751 mmHg 74%
19:00 -2°C° 0 mm 5 m/s 752 mmHg 78%
20:00 -2°C° 0.2 mm 5 m/s 752 mmHg 79%
21:00 -4°C° 0.2 mm 5 m/s 752 mmHg 81%
22:00 -5°C° 0.2 mm 5 m/s 753 mmHg 82%
23:00 -4°C° 0 mm 4 m/s 753 mmHg 79%

8 Março, Segunda-feira

Tempo Temperatura Precipitação Vento Pressão Humidade
00:00 -4°C° 0 mm 3 m/s 753 mmHg 76%
01:00 -3°C° 0 mm 2 m/s 754 mmHg 73%
02:00 -4°C° 0 mm 2 m/s 754 mmHg 73%
03:00 -5°C° 0 mm 3 m/s 754 mmHg 73%
04:00 -5°C° 0 mm 3 m/s 754 mmHg 73%
05:00 -5°C° 0 mm 3 m/s 755 mmHg 69%
06:00 -5°C° 0 mm 3 m/s 755 mmHg 65%
07:00 -5°C° 0 mm 3 m/s 756 mmHg 62%
08:00 -4°C° 0 mm 4 m/s 756 mmHg 56%
09:00 -3°C° 0 mm 4 m/s 757 mmHg 51%
10:00 -2°C° 0 mm 4 m/s 757 mmHg 45%
11:00 -2°C° 0 mm 4 m/s 758 mmHg 45%
12:00 -2°C° 0 mm 4 m/s 758 mmHg 44%
13:00 -1°C° 0 mm 4 m/s 758 mmHg 44%
14:00 -1°C° 0 mm 4 m/s 758 mmHg 43%
15:00 -1°C° 0 mm 4 m/s 758 mmHg 42%
16:00 -1°C° 0 mm 4 m/s 758 mmHg 42%
17:00 -1°C° 0 mm 3 m/s 759 mmHg 46%
18:00 -2°C° 0 mm 3 m/s 759 mmHg 51%
19:00 -3°C° 0 mm 2 m/s 759 mmHg 55%
20:00 -4°C° 0 mm 2 m/s 760 mmHg 56%
21:00 -2°C° 0 mm 1 m/s 760 mmHg 56%
22:00 -2°C° 0 mm 1 m/s 761 mmHg 57%
23:00 -2°C° 0 mm 1 m/s 761 mmHg 55%
Mostrar mais

Necessitamos do seu Consentimento

A Meteoprog e os seus Fornecedores de Serviços podem armazenar e aceder a dados pessoais como cookies, identificadores do dispositivo ou outras tecnologias semelhantes existentes no seu dispositivo e processar estes dados para personalizar conteúdos e anúncios, assim como funcionalidades nas redes sociais e análise de tráfego.

  • Armazenar e/ou aceder a informações no seu dispositivo

    Os cookies, identificadores do dispositivo ou outras informações podem ser armazenados ou acedidos no seu dispositivo, para os fins acima indicados.

  • Anúncios e conteúdos personalizados, medição de anúncios e conteúdos, dados sobre o público-alvo e desenvolvimento de produtos

    Os anúncios e os conteúdos podem ser personalizados com base num perfil. Podem ser adicionados dados adicionais para uma maior personalização dos anúncios e dos conteúdos. A eficácia dos anúncios e dos conteúdos pode ser medida. Podem ser obtidas informações sobre o público que visualizou os anúncios e os conteúdos. Estes dados podem ser usados para desenvolver ou melhorar sistemas, softwares ou a experiência do utilizador.

Ao clicar em "Eu concordo”, permitirá o uso de cookies, identificadores do dispositivo e web beacons mencionados ou outras tecnologias semelhantes. As configurações do navegador do seu dispositivo podem ser alteradas.

Para certos fins, podem ser invocados interesses legítimos ao invés de consentimento. Pode ler mais informação sobre este assunto na nossa Política de Privacidade e Cookies.